Powrót do katalogu

STARLINK-4743

AktywnyŁącznośćVLEO
NORAD 53787·PAYLOAD·🇺🇸 United States

Wystrzelony Sep 11, 2022 z Cape Canaveral Space Force Station

Loading…

Następne Przeloty (najbliższe 24 godziny)

TLE

ŚwieżeSource: CelesTrak SupGP

Epoka: Sep 14, 2026, 21:44 UTC

1 53787C 22111Q   26257.90604167 -.00016378  00000+0 -52679-3 0  2577
2 53787  53.1565 132.3204 0001240  89.2379 105.1155 15.31703107    14

Śledź STARLINK-4743 w czasie rzeczywistym z AllMySat

Download on the App Store